Time,TemperatureF,DewpointF,PressureIn,WindDirection,WindDirectionDegrees,WindSpeedMPH,WindSpeedGustMPH,Humidity,HourlyPrecipIn,Conditions,Clouds,dailyrainin,SolarRadiationWatts/m^2,SoftwareType,DateUTC
2013-01-10 00:02:00,16.9,13.7,29.77,West,272,10.0,10.0,87,0.00,,,0.00,0,WeatherCatV1.10B1784,2013-01-10 08:02:00,
2013-01-10 00:08:00,16.9,13.7,29.77,West,272,10.0,10.0,87,0.00,,,0.00,0,WeatherCatV1.10B1784,2013-01-10 08:08:00,
2013-01-10 00:14:00,16.9,13.7,29.77,West,266,13.0,17.0,87,0.00,,,0.00,0,WeatherCatV1.10B1784,2013-01-10 08:14:00,
2013-01-10 00:20:00,16.9,13.7,29.79,WNW,283,14.0,18.0,87,0.00,,,0.00,0,WeatherCatV1.10B1784,2013-01-10 08:20:00,
2013-01-10 00:26:00,16.7,13.5,29.79,WNW,293,13.0,20.0,87,0.00,,,0.00,0,WeatherCatV1.10B1784,2013-01-10 08:26:00,
2013-01-10 00:32:00,16.9,13.7,29.79,West,279,11.0,21.0,87,0.00,,,0.00,0,WeatherCatV1.10B1784,2013-01-10 08:32:00,
2013-01-10 00:38:00,16.9,13.7,29.79,WNW,288,12.0,23.0,87,0.00,,,0.00,0,WeatherCatV1.10B1784,2013-01-10 08:38:00,
2013-01-10 00:44:00,16.9,13.7,29.79,WNW,283,25.0,28.0,87,0.00,,,0.00,0,WeatherCatV1.10B1784,2013-01-10 08:44:00,
2013-01-10 00:50:00,16.5,13.3,29.79,NW,307,17.0,24.0,87,0.00,,,0.00,0,WeatherCatV1.10B1784,2013-01-10 08:50:00,
2013-01-10 00:56:00,16.4,13.2,29.79,WNW,293,22.0,31.0,87,0.00,,,0.00,0,WeatherCatV1.10B1784,2013-01-10 08:56:00,
2013-01-10 01:02:00,16.1,12.9,29.79,NW,315,19.0,26.0,87,0.00,,,0.00,0,WeatherCatV1.10B1784,2013-01-10 09:02:00,
2013-01-10 01:08:00,15.9,12.5,29.79,West,279,11.0,27.0,86,0.00,,,0.00,0,WeatherCatV1.10B1784,2013-01-10 09:08:00,
2013-01-10 01:14:00,15.9,12.5,29.81,WSW,251,11.0,20.0,86,0.00,,,0.00,0,WeatherCatV1.10B1784,2013-01-10 09:14:00,
2013-01-10 01:20:00,15.6,12.2,29.81,WNW,288,11.0,27.0,86,0.00,,,0.00,0,WeatherCatV1.10B1784,2013-01-10 09:20:00,
2013-01-10 01:26:00,15.2,11.8,29.81,WNW,297,17.0,24.0,86,0.00,,,0.00,0,WeatherCatV1.10B1784,2013-01-10 09:26:00,
2013-01-10 01:32:00,15.1,11.7,29.82,WNW,303,22.0,26.0,86,0.00,,,0.00,0,WeatherCatV1.10B1784,2013-01-10 09:32:00,
2013-01-10 01:38:00,14.8,11.4,29.82,West,274,22.0,29.0,86,0.00,,,0.00,0,WeatherCatV1.10B1784,2013-01-10 09:38:00,
2013-01-10 01:44:00,14.3,10.6,29.82,NW,305,21.0,27.0,85,0.00,,,0.00,0,WeatherCatV1.10B1784,2013-01-10 09:44:00,
2013-01-10 01:50:00,14.1,10.4,29.84,NW,321,22.0,32.0,85,0.00,,,0.00,0,WeatherCatV1.10B1784,2013-01-10 09:50:00,
2013-01-10 01:56:00,14.0,10.3,29.84,West,275,16.0,19.0,85,0.00,,,0.00,0,WeatherCatV1.10B1784,2013-01-10 09:56:00,
2013-01-10 02:02:00,13.6,9.7,29.85,WNW,301,7.0,23.0,84,0.00,,,0.00,0,WeatherCatV1.10B1784,2013-01-10 10:02:00,
2013-01-10 02:08:00,13.5,9.6,29.85,NW,306,19.0,29.0,84,0.00,,,0.00,0,WeatherCatV1.10B1784,2013-01-10 10:08:00,
2013-01-10 02:14:00,13.5,9.6,29.85,WNW,288,18.0,23.0,84,0.00,,,0.00,0,WeatherCatV1.10B1784,2013-01-10 10:14:00,
2013-01-10 02:20:00,13.5,9.6,29.85,WSW,254,16.0,22.0,84,0.00,,,0.00,0,WeatherCatV1.10B1784,2013-01-10 10:20:00,
2013-01-10 02:26:00,13.5,9.6,29.85,West,259,17.0,18.0,84,0.00,,,0.00,0,WeatherCatV1.10B1784,2013-01-10 10:26:00,
2013-01-10 02:32:00,13.1,9.2,29.87,WSW,247,11.0,17.0,84,0.00,,,0.00,0,WeatherCatV1.10B1784,2013-01-10 10:32:00,
2013-01-10 02:38:00,12.9,9.0,29.87,WNW,293,12.0,18.0,84,0.00,,,0.00,0,WeatherCatV1.10B1784,2013-01-10 10:38:00,
2013-01-10 02:44:00,12.9,9.0,29.87,WNW,283,6.0,13.0,84,0.00,,,0.00,0,WeatherCatV1.10B1784,2013-01-10 10:44:00,
2013-01-10 02:50:00,12.8,8.9,29.86,WNW,288,8.0,15.0,84,0.00,,,0.00,0,WeatherCatV1.10B1784,2013-01-10 10:50:00,
2013-01-10 02:56:00,12.8,8.9,29.86,WNW,288,11.0,15.0,84,0.00,,,0.00,0,WeatherCatV1.10B1784,2013-01-10 10:56:00,
2013-01-10 03:02:00,12.8,8.9,29.86,WSW,241,13.0,18.0,84,0.00,,,0.00,0,WeatherCatV1.10B1784,2013-01-10 11:02:00,
2013-01-10 03:08:00,12.6,8.7,29.86,SW,236,9.0,16.0,84,0.00,,,0.00,0,WeatherCatV1.10B1784,2013-01-10 11:08:00,
2013-01-10 03:14:00,12.6,8.7,29.90,WSW,251,13.0,17.0,84,0.00,,,0.00,0,WeatherCatV1.10B1784,2013-01-10 11:14:00,
2013-01-10 03:20:00,12.6,8.7,29.90,WSW,241,4.0,18.0,84,0.00,,,0.00,0,WeatherCatV1.10B1784,2013-01-10 11:20:00,
2013-01-10 03:26:00,12.4,8.5,29.90,SW,236,11.0,16.0,84,0.00,,,0.00,0,WeatherCatV1.10B1784,2013-01-10 11:26:00,
2013-01-10 03:32:00,12.4,8.5,29.90,WSW,242,13.0,20.0,84,0.00,,,0.00,0,WeatherCatV1.10B1784,2013-01-10 11:32:00,
2013-01-10 03:38:00,12.3,8.1,29.90,WNW,293,7.0,17.0,83,0.00,,,0.00,0,WeatherCatV1.10B1784,2013-01-10 11:38:00,
2013-01-10 03:44:00,12.3,8.1,29.90,WNW,288,6.0,11.0,83,0.00,,,0.00,0,WeatherCatV1.10B1784,2013-01-10 11:44:00,
2013-01-10 03:50:00,12.3,8.1,29.90,West,261,14.0,21.0,83,0.00,,,0.00,0,WeatherCatV1.10B1784,2013-01-10 11:50:00,
2013-01-10 03:56:00,12.3,8.1,29.90,NW,304,10.0,18.0,83,0.00,,,0.00,0,WeatherCatV1.10B1784,2013-01-10 11:56:00,
2013-01-10 04:02:00,12.3,8.4,29.90,WSW,254,4.0,16.0,84,0.00,,,0.00,0,WeatherCatV1.10B1784,2013-01-10 12:02:00,
2013-01-10 04:08:00,12.4,8.2,29.90,West,274,10.0,15.0,83,0.00,,,0.00,0,WeatherCatV1.10B1784,2013-01-10 12:08:00,
2013-01-10 04:14:00,12.4,8.2,29.92,WSW,237,3.0,13.0,83,0.00,,,0.00,0,WeatherCatV1.10B1784,2013-01-10 12:14:00,
2013-01-10 04:20:00,12.4,8.2,29.92,WSW,245,4.0,10.0,83,0.00,,,0.00,0,WeatherCatV1.10B1784,2013-01-10 12:20:00,
2013-01-10 04:26:00,12.3,8.1,29.92,WSW,247,4.0,16.0,83,0.00,,,0.00,0,WeatherCatV1.10B1784,2013-01-10 12:26:00,
2013-01-10 04:32:00,12.3,8.1,29.92,West,268,13.0,13.0,83,0.00,,,0.00,0,WeatherCatV1.10B1784,2013-01-10 12:32:00,
2013-01-10 04:38:00,12.3,8.1,29.92,West,260,14.0,14.0,83,0.00,,,0.00,0,WeatherCatV1.10B1784,2013-01-10 12:38:00,
2013-01-10 04:44:00,12.3,8.1,29.92,WNW,293,9.0,14.0,83,0.00,,,0.00,0,WeatherCatV1.10B1784,2013-01-10 12:44:00,
2013-01-10 04:50:00,12.3,8.1,29.92,WNW,297,11.0,16.0,83,0.00,,,0.00,0,WeatherCatV1.10B1784,2013-01-10 12:50:00,
2013-01-10 04:56:00,12.3,8.1,29.92,WNW,288,12.0,16.0,83,0.00,,,0.00,0,WeatherCatV1.10B1784,2013-01-10 12:56:00,
2013-01-10 05:02:00,12.3,8.1,29.92,NW,308,11.0,11.0,83,0.00,,,0.00,0,WeatherCatV1.10B1784,2013-01-10 13:02:00,
2013-01-10 05:08:00,12.3,8.1,29.92,NW,313,11.0,15.0,83,0.00,,,0.00,0,WeatherCatV1.10B1784,2013-01-10 13:08:00,
2013-01-10 05:14:00,12.3,8.1,29.92,WSW,254,6.0,10.0,83,0.00,,,0.00,0,WeatherCatV1.10B1784,2013-01-10 13:14:00,
2013-01-10 05:20:00,12.3,8.1,29.92,SW,214,2.0,8.0,83,0.00,,,0.00,0,WeatherCatV1.10B1784,2013-01-10 13:20:00,
2013-01-10 05:26:00,12.3,8.1,29.92,West,264,9.0,11.0,83,0.00,,,0.00,0,WeatherCatV1.10B1784,2013-01-10 13:26:00,
2013-01-10 05:32:00,12.4,8.2,29.92,WNW,288,11.0,15.0,83,0.00,,,0.00,0,WeatherCatV1.10B1784,2013-01-10 13:32:00,
2013-01-10 05:38:00,12.4,8.2,29.92,WNW,288,5.0,5.0,83,0.00,,,0.00,0,WeatherCatV1.10B1784,2013-01-10 13:38:00,
2013-01-10 05:44:00,12.4,8.2,29.92,WSW,253,2.0,10.0,83,0.00,,,0.00,0,WeatherCatV1.10B1784,2013-01-10 13:44:00,
2013-01-10 05:50:00,12.4,8.2,29.92,WSW,245,6.0,11.0,83,0.00,,,0.00,0,WeatherCatV1.10B1784,2013-01-10 13:50:00,
2013-01-10 05:56:00,12.4,8.2,29.92,WNW,298,10.0,12.0,83,0.00,,,0.00,0,WeatherCatV1.10B1784,2013-01-10 13:56:00,
2013-01-10 06:02:00,12.4,8.2,29.92,West,259,8.0,12.0,83,0.00,,,0.00,0,WeatherCatV1.10B1784,2013-01-10 14:02:00,
2013-01-10 06:08:00,12.4,8.2,29.92,West,266,1.0,8.0,83,0.00,,,0.00,0,WeatherCatV1.10B1784,2013-01-10 14:08:00,
2013-01-10 06:14:00,12.3,7.9,29.96,SW,236,4.0,10.0,82,0.00,,,0.00,0,WeatherCatV1.10B1784,2013-01-10 14:14:00,
2013-01-10 06:20:00,12.3,7.9,29.96,WNW,283,3.0,7.0,82,0.00,,,0.00,0,WeatherCatV1.10B1784,2013-01-10 14:20:00,
2013-01-10 06:26:00,12.3,7.9,29.96,WNW,288,5.0,10.0,82,0.00,,,0.00,0,WeatherCatV1.10B1784,2013-01-10 14:26:00,
2013-01-10 06:32:00,12.1,7.7,29.97,West,272,3.0,8.0,82,0.00,,,0.00,0,WeatherCatV1.10B1784,2013-01-10 14:32:00,
2013-01-10 06:38:00,12.1,7.7,29.97,WNW,293,11.0,12.0,82,0.00,,,0.00,0,WeatherCatV1.10B1784,2013-01-10 14:38:00,
2013-01-10 06:44:00,12.1,7.7,29.97,NW,305,10.0,16.0,82,0.00,,,0.00,0,WeatherCatV1.10B1784,2013-01-10 14:44:00,
2013-01-10 06:50:00,12.1,7.4,29.97,NW,315,11.0,16.0,81,0.00,,,0.00,0,WeatherCatV1.10B1784,2013-01-10 14:50:00,
2013-01-10 06:56:00,12.1,7.7,29.97,West,278,6.0,12.0,82,0.00,,,0.00,0,WeatherCatV1.10B1784,2013-01-10 14:56:00,
2013-01-10 07:02:00,12.1,7.7,29.99,NW,308,11.0,13.0,82,0.00,,,0.00,0,WeatherCatV1.10B1784,2013-01-10 15:02:00,
2013-01-10 07:08:00,12.1,7.7,29.99,WNW,301,6.0,13.0,82,0.00,,,0.00,0,WeatherCatV1.10B1784,2013-01-10 15:08:00,
2013-01-10 07:14:00,12.3,7.9,30.01,NW,309,7.0,13.0,82,0.00,,,0.00,0,WeatherCatV1.10B1784,2013-01-10 15:14:00,
2013-01-10 07:20:00,12.3,7.9,30.01,WNW,293,12.0,16.0,82,0.00,,,0.00,0,WeatherCatV1.10B1784,2013-01-10 15:20:00,
2013-01-10 07:26:00,12.3,7.9,30.01,WNW,293,4.0,7.0,82,0.00,,,0.00,16,WeatherCatV1.10B1784,2013-01-10 15:26:00,
2013-01-10 07:32:00,12.3,7.9,30.01,WNW,288,9.0,13.0,82,0.00,,,0.00,14,WeatherCatV1.10B1784,2013-01-10 15:32:00,
2013-01-10 07:38:00,12.1,7.4,30.01,WNW,300,7.0,15.0,81,0.00,,,0.00,28,WeatherCatV1.10B1784,2013-01-10 15:38:00,
2013-01-10 07:44:00,11.9,7.5,30.01,West,276,6.0,10.0,82,0.00,,,0.00,49,WeatherCatV1.10B1784,2013-01-10 15:44:00,
2013-01-10 07:50:00,11.9,7.2,30.01,WNW,288,8.0,9.0,81,0.00,,,0.00,51,WeatherCatV1.10B1784,2013-01-10 15:50:00,
2013-01-10 07:56:00,11.7,7.3,30.01,WNW,283,5.0,11.0,82,0.00,,,0.00,67,WeatherCatV1.10B1784,2013-01-10 15:56:00,
2013-01-10 08:02:00,11.7,7.3,30.01,WNW,288,5.0,7.0,82,0.00,,,0.00,67,WeatherCatV1.10B1784,2013-01-10 16:02:00,
2013-01-10 08:08:00,11.7,7.3,30.01,WNW,301,13.0,21.0,82,0.00,,,0.00,58,WeatherCatV1.10B1784,2013-01-10 16:08:00,
2013-01-10 08:14:00,11.9,7.5,30.04,West,263,3.0,15.0,82,0.00,,,0.00,116,WeatherCatV1.10B1784,2013-01-10 16:14:00,
2013-01-10 08:20:00,12.1,7.7,30.04,West,271,8.0,13.0,82,0.00,,,0.00,121,WeatherCatV1.10B1784,2013-01-10 16:20:00,
2013-01-10 08:26:00,12.3,7.9,30.04,West,264,10.0,10.0,82,0.00,,,0.00,214,WeatherCatV1.10B1784,2013-01-10 16:26:00,
2013-01-10 08:32:00,12.4,8.0,30.04,WSW,252,11.0,12.0,82,0.00,,,0.00,223,WeatherCatV1.10B1784,2013-01-10 16:32:00,
2013-01-10 08:38:00,12.6,8.2,30.04,WSW,249,7.0,15.0,82,0.00,,,0.00,236,WeatherCatV1.10B1784,2013-01-10 16:38:00,
2013-01-10 08:44:00,12.8,8.4,30.03,WNW,299,6.0,9.0,82,0.00,,,0.00,192,WeatherCatV1.10B1784,2013-01-10 16:44:00,
2013-01-10 08:50:00,12.9,8.5,30.03,WSW,258,6.0,15.0,82,0.00,,,0.00,279,WeatherCatV1.10B1784,2013-01-10 16:50:00,
2013-01-10 08:56:00,13.3,8.9,30.03,West,267,4.0,13.0,82,0.00,,,0.00,359,WeatherCatV1.10B1784,2013-01-10 16:56:00,
2013-01-10 09:02:00,13.6,9.1,30.03,SW,232,5.0,13.0,82,0.00,,,0.00,380,WeatherCatV1.10B1784,2013-01-10 17:02:00,
2013-01-10 09:08:00,13.6,8.9,30.03,WNW,293,8.0,14.0,81,0.00,,,0.00,276,WeatherCatV1.10B1784,2013-01-10 17:08:00,
2013-01-10 09:14:00,13.8,9.3,30.04,WNW,293,12.0,12.0,82,0.00,,,0.00,322,WeatherCatV1.10B1784,2013-01-10 17:14:00,
2013-01-10 09:20:00,14.3,9.8,30.04,West,263,6.0,12.0,82,0.00,,,0.00,339,WeatherCatV1.10B1784,2013-01-10 17:20:00,
2013-01-10 09:26:00,14.3,9.6,30.04,WSW,256,4.0,11.0,81,0.00,,,0.00,487,WeatherCatV1.10B1784,2013-01-10 17:26:00,
2013-01-10 09:32:00,14.8,10.3,30.04,SW,219,4.0,6.0,82,0.00,,,0.00,483,WeatherCatV1.10B1784,2013-01-10 17:32:00,
2013-01-10 09:38:00,15.4,10.9,30.04,West,276,5.0,11.0,82,0.00,,,0.00,450,WeatherCatV1.10B1784,2013-01-10 17:38:00,
2013-01-10 09:44:00,15.1,10.3,30.04,West,260,6.0,14.0,81,0.00,,,0.00,399,WeatherCatV1.10B1784,2013-01-10 17:44:00,
2013-01-10 09:50:00,15.1,10.3,30.04,WSW,253,6.0,10.0,81,0.00,,,0.00,457,WeatherCatV1.10B1784,2013-01-10 17:50:00,
2013-01-10 09:56:00,14.9,9.6,30.04,SW,230,11.0,18.0,79,0.00,,,0.00,559,WeatherCatV1.10B1784,2013-01-10 17:56:00,
2013-01-10 10:02:00,14.6,9.3,30.05,West,260,11.0,16.0,79,0.00,,,0.00,564,WeatherCatV1.10B1784,2013-01-10 18:02:00,
2013-01-10 10:08:00,14.8,9.8,30.05,WNW,283,5.0,13.0,80,0.00,,,0.00,533,WeatherCatV1.10B1784,2013-01-10 18:08:00,
2013-01-10 10:14:00,14.8,9.8,30.10,WSW,238,9.0,10.0,80,0.00,,,0.00,568,WeatherCatV1.10B1784,2013-01-10 18:14:00,
2013-01-10 10:20:00,15.2,10.2,30.10,West,262,6.0,12.0,80,0.00,,,0.00,547,WeatherCatV1.10B1784,2013-01-10 18:20:00,
2013-01-10 10:26:00,15.4,10.1,30.10,WSW,250,6.0,14.0,79,0.00,,,0.00,568,WeatherCatV1.10B1784,2013-01-10 18:26:00,
2013-01-10 10:32:00,15.9,10.8,30.10,WSW,249,11.0,13.0,80,0.00,,,0.00,313,WeatherCatV1.10B1784,2013-01-10 18:32:00,
2013-01-10 10:38:00,15.6,9.7,30.10,WNW,293,15.0,19.0,77,0.00,,,0.00,269,WeatherCatV1.10B1784,2013-01-10 18:38:00,
2013-01-10 10:44:00,15.1,9.5,30.09,WNW,283,14.0,14.0,78,0.00,,,0.00,366,WeatherCatV1.10B1784,2013-01-10 18:44:00,
2013-01-10 10:50:00,15.1,9.5,30.09,NW,312,13.0,22.0,78,0.00,,,0.00,682,WeatherCatV1.10B1784,2013-01-10 18:50:00,
2013-01-10 10:56:00,14.9,8.4,30.09,WNW,283,16.0,19.0,75,0.00,,,0.00,661,WeatherCatV1.10B1784,2013-01-10 18:56:00,
2013-01-10 11:02:00,14.8,8.3,30.09,West,276,11.0,15.0,75,0.00,,,0.00,309,WeatherCatV1.10B1784,2013-01-10 19:02:00,
2013-01-10 11:17:00,14.9,8.7,30.08,WNW,293,14.0,16.0,76,0.00,,,0.00,276,WeatherCatV1.10B1784,2013-01-10 19:17:00,
2013-01-10 11:23:00,14.8,8.3,30.08,WSW,245,6.0,18.0,75,0.00,,,0.00,387,WeatherCatV1.10B1784,2013-01-10 19:23:00,
2013-01-10 11:29:00,14.8,8.3,30.08,WNW,297,11.0,14.0,75,0.00,,,0.00,255,WeatherCatV1.10B1784,2013-01-10 19:29:00,
2013-01-10 11:35:00,14.6,8.1,30.08,West,262,16.0,16.0,75,0.00,,,0.00,281,WeatherCatV1.10B1784,2013-01-10 19:35:00,
2013-01-10 11:41:00,14.4,8.0,30.08,WNW,288,11.0,22.0,75,0.00,,,0.00,195,WeatherCatV1.10B1784,2013-01-10 19:41:00,
2013-01-10 11:47:00,14.3,8.1,30.10,West,278,11.0,16.0,76,0.00,,,0.00,127,WeatherCatV1.10B1784,2013-01-10 19:47:00,
2013-01-10 11:53:00,14.1,8.0,30.10,NW,305,14.0,18.0,76,0.00,,,0.00,93,WeatherCatV1.10B1784,2013-01-10 19:53:00,
2013-01-10 11:59:00,14.1,8.2,30.09,WNW,293,15.0,18.0,77,0.00,,,0.00,132,WeatherCatV1.10B1784,2013-01-10 19:59:00,
2013-01-10 12:05:00,14.1,8.0,30.09,WNW,302,13.0,15.0,76,0.00,,,0.00,165,WeatherCatV1.10B1784,2013-01-10 20:05:00,
2013-01-10 12:11:00,14.1,7.7,30.09,WNW,299,11.0,13.0,75,0.00,,,0.00,67,WeatherCatV1.10B1784,2013-01-10 20:11:00,
2013-01-10 12:17:00,14.0,8.4,30.08,NW,310,15.0,16.0,78,0.00,,,0.00,84,WeatherCatV1.10B1784,2013-01-10 20:17:00,
2013-01-10 12:23:00,13.8,8.5,30.08,NW,307,14.0,18.0,79,0.00,,,0.00,186,WeatherCatV1.10B1784,2013-01-10 20:23:00,
2013-01-10 12:29:00,14.3,8.7,30.08,NW,305,11.0,16.0,78,0.00,,,0.00,195,WeatherCatV1.10B1784,2013-01-10 20:29:00,
2013-01-10 12:35:00,14.4,8.5,30.08,WNW,297,6.0,12.0,77,0.00,,,0.00,174,WeatherCatV1.10B1784,2013-01-10 20:35:00,
2013-01-10 12:41:00,14.6,9.0,30.08,WNW,288,13.0,16.0,78,0.00,,,0.00,329,WeatherCatV1.10B1784,2013-01-10 20:41:00,
2013-01-10 12:47:00,15.1,8.9,30.08,West,277,9.0,15.0,76,0.00,,,0.00,309,WeatherCatV1.10B1784,2013-01-10 20:47:00,
2013-01-10 12:53:00,15.4,9.2,30.08,WSW,252,10.0,15.0,76,0.00,,,0.00,193,WeatherCatV1.10B1784,2013-01-10 20:53:00,
2013-01-10 12:59:00,15.2,8.7,30.08,WNW,288,9.0,15.0,75,0.00,,,0.00,137,WeatherCatV1.10B1784,2013-01-10 20:59:00,
2013-01-10 13:05:00,14.6,8.7,30.08,WNW,283,11.0,25.0,77,0.00,,,0.00,44,WeatherCatV1.10B1784,2013-01-10 21:05:00,
2013-01-10 13:11:00,13.6,8.9,30.08,WSW,253,8.0,17.0,81,0.00,,,0.00,49,WeatherCatV1.10B1784,2013-01-10 21:11:00,
2013-01-10 13:17:00,13.3,8.9,30.10,WNW,303,11.0,14.0,82,0.00,,,0.00,193,WeatherCatV1.10B1784,2013-01-10 21:17:00,
2013-01-10 13:23:00,13.3,9.1,30.10,WNW,293,13.0,17.0,83,0.00,,,0.00,257,WeatherCatV1.10B1784,2013-01-10 21:23:00,
2013-01-10 13:29:00,13.6,9.4,30.10,WNW,283,14.0,15.0,83,0.00,,,0.00,165,WeatherCatV1.10B1784,2013-01-10 21:29:00,
2013-01-10 13:35:00,13.6,9.1,30.10,WNW,301,11.0,17.0,82,0.00,,,0.00,72,WeatherCatV1.10B1784,2013-01-10 21:35:00,
2013-01-10 13:41:00,13.6,9.1,30.10,WNW,288,10.0,12.0,82,0.00,,,0.00,42,WeatherCatV1.10B1784,2013-01-10 21:41:00,
2013-01-10 13:47:00,13.5,9.0,30.09,WNW,288,12.0,12.0,82,0.00,,,0.00,56,WeatherCatV1.10B1784,2013-01-10 21:47:00,
2013-01-10 13:53:00,13.3,8.9,30.09,WNW,299,6.0,16.0,82,0.00,,,0.00,97,WeatherCatV1.10B1784,2013-01-10 21:53:00,
2013-01-10 13:59:00,13.5,9.3,30.09,WNW,299,10.0,12.0,83,0.00,,,0.00,88,WeatherCatV1.10B1784,2013-01-10 21:59:00,
2013-01-10 14:05:00,13.5,9.3,30.09,NW,310,7.0,10.0,83,0.00,,,0.00,63,WeatherCatV1.10B1784,2013-01-10 22:05:00,
2013-01-10 14:11:00,13.5,9.3,30.09,WNW,283,3.0,6.0,83,0.00,,,0.00,97,WeatherCatV1.10B1784,2013-01-10 22:11:00,
2013-01-10 14:17:00,13.6,9.7,30.12,WNW,288,7.0,7.0,84,0.00,,,0.00,81,WeatherCatV1.10B1784,2013-01-10 22:17:00,
2013-01-10 14:23:00,13.8,9.6,30.12,West,274,6.0,10.0,83,0.00,,,0.00,76,WeatherCatV1.10B1784,2013-01-10 22:23:00,
2013-01-10 14:29:00,14.0,9.5,30.12,WNW,303,12.0,14.0,82,0.00,,,0.00,165,WeatherCatV1.10B1784,2013-01-10 22:29:00,
2013-01-10 14:35:00,14.3,9.6,30.12,NW,307,10.0,12.0,81,0.00,,,0.00,149,WeatherCatV1.10B1784,2013-01-10 22:35:00,
2013-01-10 14:41:00,14.6,10.1,30.12,WNW,288,15.0,19.0,82,0.00,,,0.00,69,WeatherCatV1.10B1784,2013-01-10 22:41:00,
2013-01-10 14:47:00,14.6,10.4,30.11,NW,314,11.0,15.0,83,0.00,,,0.00,155,WeatherCatV1.10B1784,2013-01-10 22:47:00,
2013-01-10 14:53:00,14.6,10.1,30.11,NW,307,14.0,20.0,82,0.00,,,0.00,88,WeatherCatV1.10B1784,2013-01-10 22:53:00,
2013-01-10 14:59:00,14.4,9.1,30.13,WNW,293,15.0,19.0,79,0.00,,,0.00,58,WeatherCatV1.10B1784,2013-01-10 22:59:00,
2013-01-10 15:05:00,14.3,8.7,30.13,WNW,288,18.0,19.0,78,0.00,,,0.00,83,WeatherCatV1.10B1784,2013-01-10 23:05:00,
2013-01-10 15:11:00,14.3,8.7,30.13,NW,315,11.0,14.0,78,0.00,,,0.00,84,WeatherCatV1.10B1784,2013-01-10 23:11:00,
2013-01-10 15:17:00,14.3,8.7,30.13,NW,309,10.0,10.0,78,0.00,,,0.00,83,WeatherCatV1.10B1784,2013-01-10 23:17:00,
2013-01-10 15:23:00,14.4,9.1,30.13,WNW,283,9.0,16.0,79,0.00,,,0.00,113,WeatherCatV1.10B1784,2013-01-10 23:23:00,
2013-01-10 15:29:00,14.4,8.8,30.13,WNW,293,15.0,16.0,78,0.00,,,0.00,102,WeatherCatV1.10B1784,2013-01-10 23:29:00,
2013-01-10 15:35:00,14.4,8.8,30.13,SW,234,14.0,14.0,78,0.00,,,0.00,130,WeatherCatV1.10B1784,2013-01-10 23:35:00,
2013-01-10 15:41:00,14.6,9.3,30.13,WSW,254,7.0,12.0,79,0.00,,,0.00,160,WeatherCatV1.10B1784,2013-01-10 23:41:00,
2013-01-10 15:47:00,14.8,9.8,30.13,West,279,5.0,10.0,80,0.00,,,0.00,53,WeatherCatV1.10B1784,2013-01-10 23:47:00,
2013-01-10 15:53:00,14.6,9.3,30.13,WNW,283,12.0,18.0,79,0.00,,,0.00,30,WeatherCatV1.10B1784,2013-01-10 23:53:00,
2013-01-10 15:59:00,14.6,9.3,30.13,NW,312,18.0,21.0,79,0.00,,,0.00,81,WeatherCatV1.10B1784,2013-01-10 23:59:00,
2013-01-10 16:05:00,14.8,9.8,30.13,WNW,297,10.0,15.0,80,0.00,,,0.00,153,WeatherCatV1.10B1784,2013-01-11 00:05:00,
2013-01-10 16:11:00,15.1,10.3,30.13,WSW,250,11.0,20.0,81,0.00,,,0.00,190,WeatherCatV1.10B1784,2013-01-11 00:11:00,
2013-01-10 16:17:00,15.2,10.4,30.13,WNW,283,12.0,21.0,81,0.00,,,0.00,230,WeatherCatV1.10B1784,2013-01-11 00:17:00,
2013-01-10 16:23:00,15.4,10.6,30.13,West,269,7.0,19.0,81,0.00,,,0.00,144,WeatherCatV1.10B1784,2013-01-11 00:23:00,
2013-01-10 16:29:00,15.2,10.4,30.13,WNW,288,10.0,20.0,81,0.00,,,0.00,105,WeatherCatV1.10B1784,2013-01-11 00:29:00,
2013-01-10 16:35:00,15.1,9.5,30.13,NW,316,14.0,15.0,78,0.00,,,0.00,107,WeatherCatV1.10B1784,2013-01-11 00:35:00,
2013-01-10 16:41:00,14.9,9.3,30.13,West,279,7.0,18.0,78,0.00,,,0.00,16,WeatherCatV1.10B1784,2013-01-11 00:41:00,
2013-01-10 16:47:00,14.8,8.3,30.14,WNW,293,14.0,21.0,75,0.00,,,0.00,5,WeatherCatV1.10B1784,2013-01-11 00:47:00,
2013-01-10 16:53:00,14.6,8.7,30.14,NW,314,13.0,23.0,77,0.00,,,0.00,5,WeatherCatV1.10B1784,2013-01-11 00:53:00,
2013-01-10 16:59:00,14.4,7.4,30.14,NW,309,16.0,22.0,73,0.00,,,0.00,0,WeatherCatV1.10B1784,2013-01-11 00:59:00,
2013-01-10 17:05:00,14.3,7.0,30.14,WNW,297,12.0,16.0,72,0.00,,,0.00,0,WeatherCatV1.10B1784,2013-01-11 01:05:00,
2013-01-10 17:11:00,14.1,7.1,30.14,West,259,13.0,18.0,73,0.00,,,0.00,0,WeatherCatV1.10B1784,2013-01-11 01:11:00,
2013-01-10 17:17:00,14.0,7.3,30.15,WNW,297,11.0,15.0,74,0.00,,,0.00,0,WeatherCatV1.10B1784,2013-01-11 01:17:00,
2013-01-10 17:23:00,14.0,7.6,30.15,WNW,298,17.0,18.0,75,0.00,,,0.00,0,WeatherCatV1.10B1784,2013-01-11 01:23:00,
2013-01-10 17:29:00,14.0,7.3,30.15,WNW,293,12.0,17.0,74,0.00,,,0.00,0,WeatherCatV1.10B1784,2013-01-11 01:29:00,
2013-01-10 17:35:00,14.1,7.1,30.15,NW,307,20.0,22.0,73,0.00,,,0.00,0,WeatherCatV1.10B1784,2013-01-11 01:35:00,
2013-01-10 17:41:00,14.0,7.0,30.15,WNW,297,18.0,21.0,73,0.00,,,0.00,0,WeatherCatV1.10B1784,2013-01-11 01:41:00,
2013-01-10 17:47:00,14.0,6.7,30.15,NW,305,16.0,20.0,72,0.00,,,0.00,0,WeatherCatV1.10B1784,2013-01-11 01:47:00,
2013-01-10 17:53:00,13.8,6.5,30.15,NW,315,20.0,20.0,72,0.00,,,0.00,0,WeatherCatV1.10B1784,2013-01-11 01:53:00,
2013-01-10 17:59:00,13.8,6.2,30.15,WNW,288,20.0,20.0,71,0.00,,,0.00,0,WeatherCatV1.10B1784,2013-01-11 01:59:00,
2013-01-10 18:05:00,13.8,6.2,30.15,NW,315,14.0,17.0,71,0.00,,,0.00,0,WeatherCatV1.10B1784,2013-01-11 02:05:00,
2013-01-10 18:11:00,13.6,5.7,30.15,WNW,283,18.0,18.0,70,0.00,,,0.00,0,WeatherCatV1.10B1784,2013-01-11 02:11:00,
2013-01-10 18:17:00,13.6,5.7,30.15,NW,304,9.0,16.0,70,0.00,,,0.00,0,WeatherCatV1.10B1784,2013-01-11 02:17:00,
2013-01-10 18:23:00,13.6,6.3,30.15,West,279,13.0,17.0,72,0.00,,,0.00,0,WeatherCatV1.10B1784,2013-01-11 02:23:00,
2013-01-10 18:29:00,13.6,6.3,30.16,West,275,14.0,22.0,72,0.00,,,0.00,0,WeatherCatV1.10B1784,2013-01-11 02:29:00,
2013-01-10 18:35:00,13.8,6.2,30.16,WNW,288,10.0,18.0,71,0.00,,,0.00,0,WeatherCatV1.10B1784,2013-01-11 02:35:00,
2013-01-10 18:41:00,13.8,6.5,30.16,WNW,288,18.0,19.0,72,0.00,,,0.00,0,WeatherCatV1.10B1784,2013-01-11 02:41:00,
2013-01-10 18:47:00,13.8,6.5,30.15,WNW,303,13.0,19.0,72,0.00,,,0.00,0,WeatherCatV1.10B1784,2013-01-11 02:47:00,
2013-01-10 18:53:00,13.6,6.3,30.15,WNW,293,12.0,20.0,72,0.00,,,0.00,0,WeatherCatV1.10B1784,2013-01-11 02:53:00,
2013-01-10 18:59:00,13.6,6.3,30.16,West,278,12.0,20.0,72,0.00,,,0.00,0,WeatherCatV1.10B1784,2013-01-11 02:59:00,
2013-01-10 19:05:00,13.8,6.8,30.16,WNW,293,16.0,16.0,73,0.00,,,0.00,0,WeatherCatV1.10B1784,2013-01-11 03:05:00,
2013-01-10 19:11:00,13.8,6.8,30.16,NW,304,23.0,29.0,73,0.00,,,0.00,0,WeatherCatV1.10B1784,2013-01-11 03:11:00,
2013-01-10 19:17:00,13.8,7.1,30.16,WNW,283,12.0,18.0,74,0.00,,,0.00,0,WeatherCatV1.10B1784,2013-01-11 03:17:00,
2013-01-10 19:23:00,14.0,7.0,30.16,WNW,288,12.0,29.0,73,0.00,,,0.00,0,WeatherCatV1.10B1784,2013-01-11 03:23:00,
2013-01-10 19:29:00,14.0,7.0,30.16,NW,309,17.0,17.0,73,0.00,,,0.00,0,WeatherCatV1.10B1784,2013-01-11 03:29:00,
2013-01-10 19:35:00,14.0,6.7,30.16,WNW,299,10.0,22.0,72,0.00,,,0.00,0,WeatherCatV1.10B1784,2013-01-11 03:35:00,
2013-01-10 19:41:00,14.1,7.1,30.16,NW,324,12.0,13.0,73,0.00,,,0.00,0,WeatherCatV1.10B1784,2013-01-11 03:41:00,
2013-01-10 19:47:00,14.0,7.6,30.17,WNW,301,11.0,17.0,75,0.00,,,0.00,0,WeatherCatV1.10B1784,2013-01-11 03:47:00,
2013-01-10 19:53:00,14.0,7.3,30.17,WNW,293,16.0,16.0,74,0.00,,,0.00,0,WeatherCatV1.10B1784,2013-01-11 03:53:00,
2013-01-10 19:59:00,14.0,7.9,30.17,NW,310,19.0,28.0,76,0.00,,,0.00,0,WeatherCatV1.10B1784,2013-01-11 03:59:00,
2013-01-10 20:05:00,13.8,8.5,30.17,NW,312,14.0,24.0,79,0.00,,,0.00,0,WeatherCatV1.10B1784,2013-01-11 04:05:00,
2013-01-10 20:11:00,13.6,8.9,30.17,WNW,283,18.0,19.0,81,0.00,,,0.00,0,WeatherCatV1.10B1784,2013-01-11 04:11:00,
2013-01-10 20:17:00,13.5,9.0,30.16,NW,311,11.0,21.0,82,0.00,,,0.00,0,WeatherCatV1.10B1784,2013-01-11 04:17:00,
2013-01-10 20:23:00,13.5,9.0,30.16,West,268,10.0,22.0,82,0.00,,,0.00,0,WeatherCatV1.10B1784,2013-01-11 04:23:00,
2013-01-10 20:29:00,13.5,9.0,30.16,WNW,302,11.0,20.0,82,0.00,,,0.00,0,WeatherCatV1.10B1784,2013-01-11 04:29:00,
2013-01-10 20:35:00,13.5,9.0,30.16,NW,310,14.0,19.0,82,0.00,,,0.00,0,WeatherCatV1.10B1784,2013-01-11 04:35:00,
2013-01-10 20:41:00,13.5,8.8,30.16,WNW,288,14.0,25.0,81,0.00,,,0.00,0,WeatherCatV1.10B1784,2013-01-11 04:41:00,
2013-01-10 20:47:00,13.8,8.5,30.15,NW,318,18.0,23.0,79,0.00,,,0.00,0,WeatherCatV1.10B1784,2013-01-11 04:47:00,
2013-01-10 20:53:00,13.6,6.6,30.15,West,273,14.0,31.0,73,0.00,,,0.00,0,WeatherCatV1.10B1784,2013-01-11 04:53:00,
2013-01-10 20:59:00,13.6,6.3,30.16,West,264,22.0,28.0,72,0.00,,,0.00,0,WeatherCatV1.10B1784,2013-01-11 04:59:00,
2013-01-10 21:03:00,13.6,5.7,30.16,WNW,283,18.0,32.0,70,0.00,,,0.00,0,WeatherCatV1.10B1784,2013-01-11 05:03:00,
2013-01-10 21:05:00,13.6,5.7,30.16,WNW,302,18.0,20.0,70,0.00,,,0.00,0,WeatherCatV1.10B1784,2013-01-11 05:05:00,
2013-01-10 21:07:00,13.6,6.0,30.16,WNW,301,7.0,23.0,71,0.00,,,0.00,0,WeatherCatV1.10B1784,2013-01-11 05:07:00,
2013-01-10 21:13:00,13.8,6.5,30.16,WNW,293,18.0,23.0,72,0.00,,,0.00,0,WeatherCatV1.10B1784,2013-01-11 05:13:00,
2013-01-10 21:19:00,13.6,6.3,30.16,WNW,293,15.0,26.0,72,0.00,,,0.00,0,WeatherCatV1.10B1784,2013-01-11 05:19:00,
2013-01-10 21:25:00,13.6,6.0,30.16,WNW,288,25.0,30.0,71,0.00,,,0.00,0,WeatherCatV1.10B1784,2013-01-11 05:25:00,
2013-01-10 21:31:00,13.6,6.0,30.16,WNW,293,12.0,30.0,71,0.00,,,0.00,0,WeatherCatV1.10B1784,2013-01-11 05:31:00,
2013-01-10 21:37:00,13.5,6.2,30.16,WNW,297,19.0,21.0,72,0.00,,,0.00,0,WeatherCatV1.10B1784,2013-01-11 05:37:00,
2013-01-10 21:43:00,13.5,6.2,30.16,WNW,297,17.0,28.0,72,0.00,,,0.00,0,WeatherCatV1.10B1784,2013-01-11 05:43:00,
2013-01-10 21:49:00,13.6,6.6,30.16,NW,310,15.0,22.0,73,0.00,,,0.00,0,WeatherCatV1.10B1784,2013-01-11 05:49:00,
2013-01-10 21:55:00,13.6,6.6,30.16,WNW,288,21.0,26.0,73,0.00,,,0.00,0,WeatherCatV1.10B1784,2013-01-11 05:55:00,
2013-01-10 22:01:00,13.5,6.8,30.16,West,279,18.0,26.0,74,0.00,,,0.00,0,WeatherCatV1.10B1784,2013-01-11 06:01:00,
2013-01-10 22:07:00,13.5,6.5,30.16,West,264,7.0,24.0,73,0.00,,,0.00,0,WeatherCatV1.10B1784,2013-01-11 06:07:00,
2013-01-10 22:13:00,13.6,6.6,30.16,NW,310,13.0,23.0,73,0.00,,,0.00,0,WeatherCatV1.10B1784,2013-01-11 06:13:00,
2013-01-10 22:19:00,13.6,6.3,30.17,NW,306,20.0,20.0,72,0.00,,,0.00,0,WeatherCatV1.10B1784,2013-01-11 06:19:00,
2013-01-10 22:25:00,13.8,6.5,30.17,WNW,297,12.0,18.0,72,0.00,,,0.00,0,WeatherCatV1.10B1784,2013-01-11 06:25:00,
2013-01-10 22:31:00,13.8,6.2,30.18,WNW,283,11.0,22.0,71,0.00,,,0.00,0,WeatherCatV1.10B1784,2013-01-11 06:31:00,
2013-01-10 22:37:00,13.8,5.9,30.18,WNW,302,13.0,23.0,70,0.00,,,0.00,0,WeatherCatV1.10B1784,2013-01-11 06:37:00,
2013-01-10 22:43:00,13.8,5.9,30.18,NW,314,10.0,18.0,70,0.00,,,0.00,0,WeatherCatV1.10B1784,2013-01-11 06:43:00,
2013-01-10 22:49:00,14.0,6.7,30.18,WNW,298,20.0,20.0,72,0.00,,,0.00,0,WeatherCatV1.10B1784,2013-01-11 06:49:00,
2013-01-10 22:55:00,14.0,6.4,30.18,NW,318,11.0,26.0,71,0.00,,,0.00,0,WeatherCatV1.10B1784,2013-01-11 06:55:00,
2013-01-10 23:01:00,14.0,6.4,30.18,WNW,283,15.0,23.0,71,0.00,,,0.00,0,WeatherCatV1.10B1784,2013-01-11 07:01:00,
2013-01-10 23:07:00,14.0,6.0,30.18,NW,305,24.0,27.0,70,0.00,,,0.00,0,WeatherCatV1.10B1784,2013-01-11 07:07:00,
2013-01-10 23:13:00,13.8,5.5,30.18,WNW,299,12.0,27.0,69,0.00,,,0.00,0,WeatherCatV1.10B1784,2013-01-11 07:13:00,
2013-01-10 23:19:00,13.8,6.2,30.18,NW,307,15.0,25.0,71,0.00,,,0.00,0,WeatherCatV1.10B1784,2013-01-11 07:19:00,
2013-01-10 23:25:00,13.6,5.0,30.18,WNW,299,10.0,33.0,68,0.00,,,0.00,0,WeatherCatV1.10B1784,2013-01-11 07:25:00,
2013-01-10 23:31:00,13.8,6.2,30.18,West,265,20.0,26.0,71,0.00,,,0.00,0,WeatherCatV1.10B1784,2013-01-11 07:31:00,
2013-01-10 23:37:00,13.6,5.4,30.18,NNW,328,5.0,19.0,69,0.00,,,0.00,0,WeatherCatV1.10B1784,2013-01-11 07:37:00,
2013-01-10 23:43:00,13.6,6.0,30.18,WNW,293,13.0,17.0,71,0.00,,,0.00,0,WeatherCatV1.10B1784,2013-01-11 07:43:00,
2013-01-10 23:49:00,13.5,5.9,30.18,NW,312,23.0,23.0,71,0.00,,,0.00,0,WeatherCatV1.10B1784,2013-01-11 07:49:00,
2013-01-10 23:55:00,13.5,6.2,30.18,West,259,19.0,20.0,72,0.00,,,0.00,0,WeatherCatV1.10B1784,2013-01-11 07:55:00,